Location: Alfortville
(48.8058°N, 2.4204°E)
Time: 03:55:16
(UTC+00:00)

Envisat - Pass Details

Date: 30 November 2022
Orbit: 763 x 765 km, 98.2° (Epoch: 08 February)

Event Time Altitude Azimuth Distance (km) Brightness Sun altitude
Rises 04:30:06 0° 12° (NNE) 3,246 6.4 -27.3°
Reaches altitude 10° 04:32:25 10° 10° (N) 2,316 5.5 -26.9°
Enters shadow 04:35:30 37° 359° (N) 1,186 3.9 -26.4°
